DW1035 Weather Reports


Display with metric or nautical units.
time (UTC)temp
F
wind
direction
speed
MPH
gust
MPH
rain 1hr
in
rain 24hr
in
rain mn
in
humidity
%
barometer
mb
20260901231504 65 252 1.0 1.0 0.00 0.00 0.00 92 1013.2
20260901231005 65 243 1.0 1.0 0.00 0.00 0.00 92 1013.2
20260901230504 65 312 1.0 1.0 0.00 0.00 0.00 92 1013.2
20260901224504 65 276 1.0 2.0 0.00 0.00 0.00 91 1012.9
20260901224004 65 307 1.0 2.0 0.00 0.00 0.00 90 1012.8
20260901223504 65 66 1.0 1.0 0.00 0.00 0.00 90 1012.8
20260901221504 67 342 1.0 2.0 0.00 0.00 0.00 88 1012.7
20260901221003 67 287 2.0 2.0 0.00 0.00 0.00 88 1012.8
20260901220503 67 337 1.0 1.0 0.00 0.00 0.00 87 1012.8
20260901220009 67 326 1.0 2.0 0.00 0.00 0.00 87 1012.8
20260901214510 67 61 1.0 1.0 0.00 0.00 0.00 86 1012.8
20260901214009 67 332 1.0 1.0 0.00 0.00 0.00 86 1012.8
20260901213509 67 58 1.0 2.0 0.00 0.00 0.00 86 1012.7
20260901213010 67 354 1.0 2.0 0.00 0.00 0.00 86 1012.6
20260901211509 67 9 1.0 2.0 0.00 0.00 0.00 86 1012.5
20260901211009 67 63 1.0 1.0 0.00 0.00 0.00 86 1012.6
20260901210509 67 77 1.0 1.0 0.00 0.00 0.00 86 1012.5
20260901210009 67 60 1.0 2.0 0.00 0.00 0.00 86 1012.5
20260901204509 67 319 1.0 2.0 0.00 0.00 0.00 85 1012.4
20260901204009 67 332 1.0 1.0 0.00 0.00 0.00 84 1012.3
20260901203509 67 31 1.0 2.0 0.00 0.00 0.00 85 1012.2
20260901203009 68 20 1.0 3.0 0.00 0.00 0.00 84 1012.2
20260901201509 68 43 1.0 2.0 0.00 0.00 0.00 84 1012.2
20260901201008 68 78 1.0 2.0 0.00 0.00 0.00 85 1012.2
20260901200009 67 69 1.0 3.0 0.00 0.00 0.00 84 1012.2
20260901194009 67 50 2.0 3.0 0.00 0.00 0.00 85 1012.4
20260901193508 67 329 1.0 3.0 0.00 0.00 0.00 85 1012.4
20260901191509 67 308 2.0 3.0 0.00 0.00 0.00 84 1012.5
20260901191008 67 296 2.0 5.0 0.00 0.00 0.00 84 1012.5
20260901190509 67 304 2.0 2.0 0.00 0.00 0.00 83 1012.5
20260901190008 67 8 1.0 3.0 0.00 0.00 0.00 82 1012.5
20260901184508 68 49 1.0 5.0 0.00 0.00 0.00 81 1012.4
20260901184008 68 308 2.0 5.0 0.00 0.00 0.00 79 1012.4
20260901183509 69 316 1.0 3.0 0.00 0.00 0.00 78 1012.4
20260901183008 69 297 2.0 3.0 0.00 0.00 0.00 78 1012.4
20260901181509 69 311 2.0 3.0 0.00 0.00 0.00 76 1012.3
20260901180508 70 55 1.0 2.0 0.00 0.00 0.00 75 1012.2
20260901180009 69 55 1.0 3.0 0.00 0.00 0.00 75 1012.1
20260901174508 69 64 1.0 3.0 0.00 0.00 0.00 75 1012.0
20260901174008 69 44 1.0 3.0 0.00 0.00 0.00 75 1012.0
20260901173508 69 62 2.0 3.0 0.00 0.00 0.00 74 1012.1
20260901173008 70 344 1.0 3.0 0.00 0.00 0.00 73 1012.0
20260901171508 71 275 1.0 1.0 0.00 0.00 0.00 68 1012.0
20260901171008 70 270 1.0 1.0 0.00 0.00 0.00 70 1011.9
20260901170508 70 33 1.0 1.0 0.00 0.00 0.00 71 1011.9
20260901170008 69 84 1.0 3.0 0.00 0.00 0.00 70 1011.8
20260901164008 69 85 1.0 2.0 0.00 0.00 0.00 71 1012.1
20260901163008 68 82 1.0 1.0 0.00 0.00 0.00 72 1012.1
20260901161008 67 55 1.0 1.0 0.00 0.00 0.00 75 1012.3
20260901160008 67 348 1.0 2.0 0.00 0.00 0.00 74 1012.4
20260901154508 66 188 1.0 2.0 0.00 0.00 0.00 75 1012.4
20260901154008 66 50 1.0 1.0 0.00 0.00 0.00 75 1012.4
20260901153008 65 52 1.0 2.0 0.00 0.00 0.00 77 1012.3
20260901151508 64 114 1.0 2.0 0.00 0.00 0.00 76 1012.2
20260901150508 64 86 1.0 2.0 0.00 0.00 0.00 78 1012.3
20260901150007 63 93 1.0 2.0 0.00 0.00 0.00 77 1012.3
20260901144507 62 89 1.0 1.0 0.00 0.00 0.00 80 1012.3
20260901144007 62 55 1.0 2.0 0.00 0.00 0.00 83 1012.2
20260901143508 62 82 1.0 2.0 0.00 0.00 0.00 83 1012.1
20260901143007 62 79 1.0 2.0 0.00 0.00 0.00 82 1012.1
20260901141507 61 94 1.0 1.0 0.00 0.00 0.00 85 1012.4
20260901141007 61 72 1.0 1.0 0.00 0.00 0.00 86 1012.5
20260901140507 60 167 1.0 1.0 0.00 0.00 0.00 89 1012.5
20260901140007 60 66 1.0 1.0 0.00 0.00 0.00 89 1012.7
20260901134507 60 27 0.0 1.0 0.00 0.00 0.00 90 1012.8
20260901134008 60 102 1.0 1.0 0.00 0.00 0.00 90 1012.7
20260901133507 59 149 1.0 1.0 0.00 0.00 0.00 90 1012.7
20260901133007 59 96 1.0 1.0 0.00 0.00 0.00 91 1012.6
20260901131507 59 109 1.0 1.0 0.00 0.00 0.00 91 1012.6
20260901130507 59 95 1.0 1.0 0.00 0.00 0.00 92 1012.8
20260901130007 59 101 1.0 1.0 0.00 0.00 0.00 93 1012.8
20260901124507 58 127 1.0 1.0 0.00 0.00 0.00 93 1012.7
20260901124007 58 89 1.0 1.0 0.00 0.00 0.00 93 1012.7
20260901123507 58 120 1.0 1.0 0.00 0.00 0.00 93 1012.6
20260901123007 58 107 1.0 1.0 0.00 0.00 0.00 94 1012.8
20260901121507 58 36 1.0 1.0 0.00 0.00 0.00 94 1012.9
20260901121007 58 106 1.0 1.0 0.00 0.00 0.00 94 1013.0
20260901120507 58 86 1.0 1.0 0.00 0.00 0.00 94 1013.0
20260901114507 58 306 1.0 1.0 0.00 0.00 0.00 95 1012.6
20260901114006 57 16 1.0 2.0 0.00 0.00 0.00 95 1012.5
20260901113007 57 47 0.0 2.0 0.00 0.00 0.00 95 1012.4
20260901111506 57 181 1.0 3.0 0.00 0.00 0.00 96 1012.2
20260901110506 57 77 1.0 2.0 0.00 0.00 0.00 97 1012.1
20260901110006 56 95 1.0 5.0 0.00 0.00 0.00 97 1012.1
20260901104506 56 157 1.0 5.0 0.00 0.00 0.00 97 1012.2
20260901104007 56 57 1.0 5.0 0.00 0.00 0.00 97 1012.1
20260901103006 56 177 1.0 3.0 0.00 0.00 0.00 98 1011.8
20260901101506 56 220 1.0 5.0 0.00 0.00 0.00 98 1011.3
20260901101007 56 73 1.0 2.0 0.00 0.00 0.00 99 1011.3
20260901100507 56 79 1.0 1.0 0.00 0.00 0.00 99 1011.2
20260901100006 56 60 1.0 3.0 0.00 0.00 0.00 99 1011.3
20260901094506 56 61 1.0 1.0 0.00 0.00 0.00 99 1011.5
20260901093007 55 325 1.0 2.0 0.00 0.00 0.00 99 1011.6
20260901091506 54 170 2.0 2.0 0.00 0.00 0.00 99 1011.5
20260901091006 54 116 1.0 2.0 0.00 0.00 0.00 99 1011.5
20260901090506 54 161 1.0 2.0 0.00 0.00 0.00 99 1011.7
20260901090006 54 339 1.0 2.0 0.00 0.00 0.00 99 1011.6
20260901084006 55 128 1.0 2.0 0.00 0.00 0.00 98 1011.5
20260901083506 55 281 1.0 2.0 0.00 0.00 0.00 98 1011.6
20260901083006 55 160 1.0 2.0 0.00 0.00 0.00 98 1011.5
20260901081506 55 173 1.0 2.0 0.00 0.00 0.00 98 1011.6
20260901080506 55 262 1.0 1.0 0.00 0.00 0.00 98 1011.6
20260901074505 55 14 1.0 1.0 0.00 0.00 0.00 99 1011.7
20260901074006 55 14 1.0 1.0 0.00 0.00 0.00 99 1011.6
20260901073505 55 92 1.0 2.0 0.00 0.00 0.00 99 1011.6
20260901071506 54 103 0.0 1.0 0.00 0.00 0.00 98 1012.0
20260901071006 54 131 1.0 1.0 0.00 0.00 0.00 98 1012.1
20260901070005 54 100 1.0 2.0 0.00 0.00 0.00 98 1012.1
20260901064005 55 100 1.0 2.0 0.00 0.00 0.00 97 1012.0
20260901063006 55 122 1.0 2.0 0.00 0.00 0.00 97 1011.9
20260901061505 56 34 1.0 1.0 0.00 0.00 0.00 96 1012.0
20260901061005 56 75 1.0 1.0 0.00 0.00 0.00 96 1012.0
20260901060505 56 53 0.0 2.0 0.00 0.00 0.00 96 1012.0
20260901060006 56 274 1.0 3.0 0.00 0.00 0.00 96 1012.0
20260901054505 56 192 1.0 3.0 0.00 0.00 0.00 97 1012.0
20260901054005 56 71 1.0 3.0 0.00 0.00 0.00 97 1012.1
20260901053505 56 23 1.0 1.0 0.00 0.00 0.00 97 1012.1
20260901051505 56 12 1.0 5.0 0.00 0.00 0.00 97 1012.0
20260901051005 56 111 1.0 3.0 0.00 0.00 0.00 97 1012.1
20260901050505 56 73 1.0 1.0 0.00 0.00 0.00 97 1012.0
20260901044506 56 21 0.0 1.0 0.00 0.00 0.00 97 1012.1
20260901044005 56 44 1.0 1.0 0.00 0.00 0.00 96 1012.1
20260901043505 56 91 1.0 1.0 0.00 0.00 0.00 96 1012.1
20260901043004 56 93 1.0 1.0 0.00 0.00 0.00 96 1012.1
20260901041505 56 148 1.0 2.0 0.00 0.00 0.00 96 1012.0
20260901041006 56 88 0.0 1.0 0.00 0.00 0.00 96 1012.1
20260901040505 56 200 0.0 1.0 0.00 0.00 0.00 96 1012.2
20260901040005 56 101 0.0 3.0 0.00 0.07 0.00 96 1012.1
20260901034005 56 181 1.0 3.0 0.00 0.07 0.00 95 1012.0
20260901033504 56 258 1.0 3.0 0.00 0.07 0.00 95 1012.0
20260901033005 56 277 1.0 3.0 0.00 0.07 0.00 95 1012.0
20260901031004 57 53 1.0 3.0 0.00 0.07 0.00 94 1012.1
20260901030505 57 53 1.0 5.0 0.00 0.07 0.00 94 1012.2
20260901030005 57 308 2.0 5.0 0.00 0.07 0.00 94 1012.1
20260901024505 58 346 1.0 3.0 0.00 0.07 0.00 94 1012.1
20260901023504 58 249 1.0 2.0 0.00 0.08 0.00 93 1012.2
20260901021504 58 10 1.0 2.0 0.00 0.09 0.00 93 1012.2
20260901020504 58 358 1.0 1.0 0.00 0.09 0.00 93 1012.3
20260901014005 59 56 1.0 2.0 0.00 0.10 0.00 93 1012.4
20260901013504 59 265 1.0 2.0 0.00 0.11 0.00 93 1012.3
20260901013004 59 36 1.0 1.0 0.00 0.11 0.00 93 1012.3
20260901011004 60 275 1.0 2.0 0.00 0.12 0.00 91 1012.4
20260901010504 60 258 1.0 2.0 0.00 0.12 0.00 91 1012.3
20260901010004 60 318 1.0 1.0 0.00 0.12 0.00 91 1012.4
20260901004504 61 264 1.0 1.0 0.00 0.12 0.00 89 1012.3
20260901004004 61 266 1.0 2.0 0.00 0.12 0.00 89 1012.3
20260901003504 61 224 1.0 2.0 0.00 0.15 0.00 88 1012.2
20260901003004 61 348 1.0 3.0 0.00 0.15 0.00 88 1012.2
20260901001503 62 245 1.0 3.0 0.00 0.15 0.00 85 1012.2
20260901000504 63 8 1.0 3.0 0.00 0.15 0.00 84 1012.2
20260901000003 63 50 1.0 3.0 0.00 0.15 0.00 84 1012.2
20260831234513 63 340 1.0 2.0 0.00 0.15 0.00 83 1012.3
20260831234012 64 305 1.0 1.0 0.00 0.15 0.00 83 1012.3
20260831233512 64 333 1.0 1.0 0.00 0.15 0.00 82 1012.3
20260831233013 64 68 1.0 2.0 0.00 0.15 0.00 82 1012.4